Time,TemperatureF,DewpointF,PressureIn,WindDirection,WindDirectionDegrees,WindSpeedMPH,WindSpeedGustMPH,Humidity,HourlyPrecipIn,Conditions,Clouds,dailyrainin,SolarRadiationWatts/m^2,SoftwareType,DateUTC
2013-01-18 00:01:00,33.0,32.7,29.33,NNE,30,2.8,3.5,98,0.01,,,2.48,0,OHalloranWx,2013-01-18 05:01:00,
2013-01-18 00:02:00,33.0,32.7,29.33,NNE,16,4.1,4.2,98,0.01,,,0.00,0,OHalloranWx,2013-01-18 05:02:00,
2013-01-18 00:03:00,33.0,32.7,29.33,NE,36,3.0,4.2,98,0.01,,,0.00,0,OHalloranWx,2013-01-18 05:03:00,
2013-01-18 00:07:00,33.1,32.8,29.33,NNE,18,3.8,4.6,98,0.01,,,0.00,0,OHalloranWx,2013-01-18 05:07:00,
2013-01-18 00:12:00,33.2,32.9,29.33,ENE,70,2.7,3.1,98,0.01,,,0.01,0,OHalloranWx,2013-01-18 05:12:00,
2013-01-18 00:18:00,33.2,32.9,29.33,North,7,1.2,1.7,98,0.01,,,0.01,0,OHalloranWx,2013-01-18 05:18:00,
2013-01-18 00:23:00,33.2,32.8,29.33,East,82,3.5,4.6,98,0.01,,,0.01,0,OHalloranWx,2013-01-18 05:23:00,
2013-01-18 00:29:00,33.4,33.0,29.33,ENE,66,5.8,6.7,98,0.01,,,0.01,0,OHalloranWx,2013-01-18 05:29:00,
2013-01-18 00:34:00,33.6,33.1,29.33,ENE,64,5.8,6.7,97,0.01,,,0.01,0,OHalloranWx,2013-01-18 05:34:00,
2013-01-18 00:39:00,33.7,32.9,29.33,NNE,23,3.4,4.6,96,0.01,,,0.01,0,OHalloranWx,2013-01-18 05:39:00,
2013-01-18 00:45:00,33.2,32.4,29.33,ENE,59,3.1,4.6,96,0.01,,,0.01,0,OHalloranWx,2013-01-18 05:45:00,
2013-01-18 00:50:00,33.2,32.4,29.33,ESE,115,3.0,3.8,96,0.01,,,0.01,0,OHalloranWx,2013-01-18 05:50:00,
2013-01-18 00:56:00,33.0,32.2,29.33,NNE,20,2.6,2.8,97,0.01,,,0.01,0,OHalloranWx,2013-01-18 05:56:00,
2013-01-18 01:01:00,32.7,32.1,29.36,ENE,68,1.6,2.1,97,0.01,,,0.01,0,OHalloranWx,2013-01-18 06:01:00,
2013-01-18 01:07:00,32.2,31.7,29.36,East,80,0.0,0.0,97,0.01,,,0.01,0,OHalloranWx,2013-01-18 06:07:00,
2013-01-18 01:12:00,32.3,31.8,29.36,ESE,102,0.0,0.0,98,0.00,,,0.01,0,OHalloranWx,2013-01-18 06:12:00,
2013-01-18 01:17:00,32.0,31.7,29.36,East,85,0.0,0.0,98,0.00,,,0.01,0,OHalloranWx,2013-01-18 06:17:00,
2013-01-18 01:23:00,31.8,31.5,29.36,NE,47,0.0,0.0,98,0.00,,,0.01,0,OHalloranWx,2013-01-18 06:23:00,
2013-01-18 01:28:00,32.1,31.7,29.36,ENE,73,0.0,0.0,98,0.00,,,0.01,0,OHalloranWx,2013-01-18 06:28:00,
2013-01-18 01:34:00,32.8,32.3,29.36,ESE,106,0.0,0.0,98,0.00,,,0.01,0,OHalloranWx,2013-01-18 06:34:00,
2013-01-18 01:39:00,32.7,32.0,29.36,SE,130,0.0,0.0,97,0.00,,,0.01,0,OHalloranWx,2013-01-18 06:39:00,
2013-01-18 01:44:00,34.5,31.5,29.36,SE,128,0.0,0.0,88,0.00,,,0.01,0,OHalloranWx,2013-01-18 06:44:00,
2013-01-18 01:49:00,32.9,31.2,29.36,ESE,120,0.0,0.0,93,0.00,,,0.01,0,OHalloranWx,2013-01-18 06:49:00,
2013-01-18 01:55:00,33.9,31.1,29.36,SE,143,0.0,0.0,89,0.00,,,0.01,0,OHalloranWx,2013-01-18 06:55:00,
2013-01-18 02:00:00,35.4,29.6,29.36,East,88,0.0,0.0,78,0.00,,,0.01,0,OHalloranWx,2013-01-18 07:00:00,
2013-01-18 02:06:00,36.3,29.7,29.39,ESE,110,0.0,0.0,76,0.00,,,0.01,0,OHalloranWx,2013-01-18 07:06:00,
2013-01-18 02:12:00,36.7,28.2,29.39,West,270,0.0,0.0,71,0.00,,,0.01,0,OHalloranWx,2013-01-18 07:12:00,
2013-01-18 02:17:00,36.3,29.2,29.39,NNW,330,0.0,0.0,74,0.00,,,0.01,0,OHalloranWx,2013-01-18 07:17:00,
2013-01-18 02:22:00,35.9,27.3,29.39,SE,132,0.0,0.0,70,0.00,,,0.01,0,OHalloranWx,2013-01-18 07:22:00,
2013-01-18 02:28:00,36.0,27.7,29.39,SSW,192,6.1,7.8,71,0.00,,,0.01,0,OHalloranWx,2013-01-18 07:28:00,
2013-01-18 02:34:00,34.9,29.8,29.39,West,263,0.0,0.0,81,0.00,,,0.01,0,OHalloranWx,2013-01-18 07:34:00,
2013-01-18 02:39:00,34.3,28.8,29.39,North,2,0.0,0.0,79,0.00,,,0.01,0,OHalloranWx,2013-01-18 07:39:00,
2013-01-18 02:44:00,35.6,26.2,29.39,SSE,158,6.0,9.6,68,0.00,,,0.01,0,OHalloranWx,2013-01-18 07:44:00,
2013-01-18 02:50:00,35.8,26.2,29.39,East,99,5.8,9.9,67,0.00,,,0.01,0,OHalloranWx,2013-01-18 07:50:00,
2013-01-18 02:56:00,36.1,26.6,29.39,SE,130,7.5,10.6,67,0.00,,,0.01,0,OHalloranWx,2013-01-18 07:56:00,
2013-01-18 03:01:00,36.0,25.7,29.39,ESE,121,17.7,23.9,65,0.00,,,0.01,0,OHalloranWx,2013-01-18 08:01:00,
2013-01-18 03:06:00,36.1,26.1,29.39,SE,143,14.8,17.4,66,0.00,,,0.01,0,OHalloranWx,2013-01-18 08:06:00,
2013-01-18 03:12:00,36.0,25.6,29.39,ESE,118,14.5,22.1,65,0.00,,,0.01,0,OHalloranWx,2013-01-18 08:12:00,
2013-01-18 03:18:00,36.0,25.3,29.39,ESE,115,16.7,22.1,64,0.00,,,0.01,0,OHalloranWx,2013-01-18 08:18:00,
2013-01-18 03:23:00,36.0,25.0,29.39,SE,124,14.2,18.1,64,0.00,,,0.01,0,OHalloranWx,2013-01-18 08:23:00,
2013-01-18 03:28:00,35.9,25.1,29.39,ESE,118,12.0,14.9,64,0.00,,,0.01,0,OHalloranWx,2013-01-18 08:28:00,
2013-01-18 03:34:00,35.7,25.5,29.39,SE,142,11.4,14.9,66,0.00,,,0.01,0,OHalloranWx,2013-01-18 08:34:00,
2013-01-18 03:39:00,35.1,25.9,29.39,SE,143,6.3,7.4,68,0.00,,,0.01,0,OHalloranWx,2013-01-18 08:39:00,
2013-01-18 03:45:00,35.1,26.1,29.39,SE,134,4.6,5.3,69,0.00,,,0.01,0,OHalloranWx,2013-01-18 08:45:00,
2013-01-18 03:50:00,34.3,26.3,29.39,ESE,118,4.8,6.0,72,0.00,,,0.01,0,OHalloranWx,2013-01-18 08:50:00,
2013-01-18 03:56:00,33.0,28.1,29.39,East,91,3.4,4.2,81,0.00,,,0.01,0,OHalloranWx,2013-01-18 08:56:00,
2013-01-18 04:01:00,31.5,27.7,29.42,ENE,76,4.0,4.6,85,0.00,,,0.01,0,OHalloranWx,2013-01-18 09:01:00,
2013-01-18 04:07:00,31.1,28.2,29.42,ESE,104,3.6,4.9,88,0.00,,,0.01,0,OHalloranWx,2013-01-18 09:07:00,
2013-01-18 04:12:00,30.1,27.6,29.42,SE,140,3.1,4.2,90,0.00,,,0.01,0,OHalloranWx,2013-01-18 09:12:00,
2013-01-18 04:17:00,30.2,27.9,29.42,ESE,113,2.6,3.1,90,0.00,,,0.01,0,OHalloranWx,2013-01-18 09:17:00,
2013-01-18 04:23:00,29.9,28.2,29.42,East,100,2.1,2.8,93,0.00,,,0.01,0,OHalloranWx,2013-01-18 09:23:00,
2013-01-18 04:28:00,29.7,28.0,29.42,East,80,3.4,3.8,93,0.00,,,0.01,0,OHalloranWx,2013-01-18 09:28:00,
2013-01-18 04:34:00,31.7,27.1,29.42,SSE,163,3.7,4.2,82,0.00,,,0.01,0,OHalloranWx,2013-01-18 09:34:00,
2013-01-18 04:39:00,30.4,27.6,29.42,ENE,61,2.7,3.1,89,0.00,,,0.01,0,OHalloranWx,2013-01-18 09:39:00,
2013-01-18 04:45:00,30.7,28.2,29.42,East,94,2.4,2.8,90,0.00,,,0.01,0,OHalloranWx,2013-01-18 09:45:00,
2013-01-18 04:50:00,30.4,27.9,29.42,East,95,4.1,4.6,90,0.00,,,0.01,0,OHalloranWx,2013-01-18 09:50:00,
2013-01-18 04:56:00,30.0,27.8,29.42,SSE,166,3.4,3.8,91,0.00,,,0.01,0,OHalloranWx,2013-01-18 09:56:00,
2013-01-18 05:01:00,29.4,27.7,29.45,NE,50,1.5,2.4,93,0.00,,,0.01,0,OHalloranWx,2013-01-18 10:01:00,
2013-01-18 05:06:00,30.0,27.1,29.45,NNE,26,4.2,4.9,88,0.00,,,0.01,0,OHalloranWx,2013-01-18 10:06:00,
2013-01-18 05:12:00,29.0,26.9,29.45,NNE,22,2.0,2.4,91,0.00,,,0.01,0,OHalloranWx,2013-01-18 10:12:00,
2013-01-18 05:17:00,29.6,26.3,29.45,SSE,159,3.4,3.5,87,0.00,,,0.01,0,OHalloranWx,2013-01-18 10:17:00,
2013-01-18 05:23:00,29.2,27.0,29.45,North,352,2.4,3.1,91,0.00,,,0.01,0,OHalloranWx,2013-01-18 10:23:00,
2013-01-18 05:28:00,28.7,26.9,29.45,NE,50,0.0,0.0,92,0.00,,,0.01,0,OHalloranWx,2013-01-18 10:28:00,
2013-01-18 05:33:00,28.8,27.1,29.45,NNW,343,2.4,3.1,93,0.00,,,0.01,0,OHalloranWx,2013-01-18 10:33:00,
2013-01-18 05:39:00,28.3,26.8,29.45,NNE,24,2.1,2.8,94,0.00,,,0.01,0,OHalloranWx,2013-01-18 10:39:00,
2013-01-18 05:44:00,28.2,26.5,29.45,NE,56,2.4,2.8,93,0.00,,,0.01,0,OHalloranWx,2013-01-18 10:44:00,
2013-01-18 05:50:00,29.0,26.8,29.45,North,350,2.6,3.5,91,0.00,,,0.01,0,OHalloranWx,2013-01-18 10:50:00,
2013-01-18 05:55:00,29.0,26.6,29.45,NE,36,1.7,2.4,90,0.00,,,0.01,0,OHalloranWx,2013-01-18 10:55:00,
2013-01-18 06:01:00,28.4,26.7,29.45,East,79,2.2,2.8,93,0.00,,,0.01,0,OHalloranWx,2013-01-18 11:01:00,
2013-01-18 06:06:00,28.0,26.3,29.45,SSE,155,1.7,3.1,93,0.00,,,0.01,0,OHalloranWx,2013-01-18 11:06:00,
2013-01-18 06:12:00,28.6,27.4,29.45,NE,38,2.2,4.6,95,0.00,,,0.01,0,OHalloranWx,2013-01-18 11:12:00,
2013-01-18 06:17:00,28.5,26.8,29.45,North,11,3.6,4.2,93,0.00,,,0.01,0,OHalloranWx,2013-01-18 11:17:00,
2013-01-18 06:22:00,27.6,25.9,29.45,ENE,62,1.2,2.4,93,0.00,,,0.01,0,OHalloranWx,2013-01-18 11:22:00,
2013-01-18 06:28:00,27.6,26.2,29.45,West,281,2.6,2.8,94,0.00,,,0.01,0,OHalloranWx,2013-01-18 11:28:00,
2013-01-18 06:33:00,27.9,25.9,29.45,SSE,156,1.7,2.4,92,0.00,,,0.01,0,OHalloranWx,2013-01-18 11:33:00,
2013-01-18 06:38:00,27.4,25.4,29.45,SE,124,4.1,4.9,92,0.00,,,0.01,0,OHalloranWx,2013-01-18 11:38:00,
2013-01-18 06:44:00,28.0,25.2,29.45,South,184,3.2,4.9,89,0.00,,,0.01,0,OHalloranWx,2013-01-18 11:44:00,
2013-01-18 06:49:00,27.2,25.8,29.45,ESE,110,3.0,4.2,94,0.00,,,0.01,0,OHalloranWx,2013-01-18 11:49:00,
2013-01-18 06:55:00,26.7,25.6,29.45,ENE,67,4.1,4.6,95,0.00,,,0.01,0,OHalloranWx,2013-01-18 11:55:00,
2013-01-18 07:00:00,27.9,26.5,29.45,East,91,2.7,3.1,94,0.00,,,0.01,0,OHalloranWx,2013-01-18 12:00:00,
2013-01-18 07:06:00,27.0,25.3,29.51,SE,128,3.9,4.6,93,0.00,,,0.01,0,OHalloranWx,2013-01-18 12:06:00,
2013-01-18 07:11:00,28.1,26.5,29.51,ENE,78,3.5,4.6,93,0.00,,,0.01,0,OHalloranWx,2013-01-18 12:11:00,
2013-01-18 07:16:00,27.5,26.3,29.51,ESE,102,2.4,3.5,95,0.00,,,0.01,0,OHalloranWx,2013-01-18 12:16:00,
2013-01-18 07:22:00,26.9,25.5,29.51,ESE,104,1.8,3.1,94,0.00,,,0.01,0,OHalloranWx,2013-01-18 12:22:00,
2013-01-18 07:27:00,26.4,25.4,29.51,South,185,0.0,0.0,95,0.00,,,0.01,0,OHalloranWx,2013-01-18 12:27:00,
2013-01-18 07:33:00,27.0,26.1,29.51,SW,214,1.9,2.4,96,0.00,,,0.01,0.9,OHalloranWx,2013-01-18 12:33:00,
2013-01-18 07:38:00,27.8,25.8,29.51,SE,128,2.5,3.1,92,0.00,,,0.01,1.6,OHalloranWx,2013-01-18 12:38:00,
2013-01-18 07:43:00,27.6,25.1,29.51,NE,46,2.0,3.5,90,0.00,,,0.01,2.501,OHalloranWx,2013-01-18 12:43:00,
2013-01-18 07:49:00,29.0,24.6,29.51,ESE,115,1.8,3.5,83,0.00,,,0.01,3.501,OHalloranWx,2013-01-18 12:49:00,
2013-01-18 07:54:00,28.5,24.2,29.51,East,96,4.9,5.6,83,0.00,,,0.01,4.401,OHalloranWx,2013-01-18 12:54:00,
2013-01-18 07:59:00,29.7,24.5,29.51,East,95,4.4,5.3,80,0.00,,,0.01,6.802,OHalloranWx,2013-01-18 12:59:00,
2013-01-18 08:05:00,30.9,23.7,29.54,ESE,115,5.0,6.3,74,0.00,,,0.01,20.41,OHalloranWx,2013-01-18 13:05:00,
2013-01-18 08:10:00,32.1,23.0,29.54,ESE,111,5.4,6.3,68,0.00,,,0.01,16.3,OHalloranWx,2013-01-18 13:10:00,
2013-01-18 08:16:00,32.7,21.7,29.54,SE,132,6.9,8.1,63,0.00,,,0.01,12.7,OHalloranWx,2013-01-18 13:16:00,
2013-01-18 08:21:00,33.2,22.0,29.54,ESE,120,7.8,10.6,63,0.00,,,0.01,30.11,OHalloranWx,2013-01-18 13:21:00,
2013-01-18 08:26:00,33.1,22.1,29.54,SE,126,7.2,10.6,63,0.00,,,0.01,33.61,OHalloranWx,2013-01-18 13:26:00,
2013-01-18 08:32:00,33.4,22.1,29.54,SE,135,7.2,8.1,62,0.00,,,0.01,72.1,OHalloranWx,2013-01-18 13:32:00,
2013-01-18 08:38:00,34.0,20.0,29.54,ESE,122,12.8,16.4,56,0.00,,,0.01,78.8,OHalloranWx,2013-01-18 13:38:00,
2013-01-18 08:43:00,34.4,20.3,29.54,SE,129,9.6,13.1,55,0.00,,,0.01,84,OHalloranWx,2013-01-18 13:43:00,
2013-01-18 08:48:00,34.2,20.6,29.54,SE,127,13.4,16.7,57,0.00,,,0.01,88.8,OHalloranWx,2013-01-18 13:48:00,
2013-01-18 08:54:00,34.5,20.6,29.54,SE,139,9.4,12.1,56,0.00,,,0.01,96,OHalloranWx,2013-01-18 13:54:00,
2013-01-18 08:59:00,34.7,20.3,29.54,SE,130,11.9,14.2,55,0.00,,,0.01,101.2,OHalloranWx,2013-01-18 13:59:00,
2013-01-18 09:05:00,34.5,21.2,29.57,SE,137,9.1,13.5,57,0.01,,,0.02,107.6,OHalloranWx,2013-01-18 14:05:00,
2013-01-18 09:10:00,34.8,21.6,29.57,SE,126,6.4,8.5,57,0.01,,,0.02,112.5,OHalloranWx,2013-01-18 14:10:00,
2013-01-18 09:15:00,34.9,21.1,29.57,ESE,112,9.6,13.9,56,0.01,,,0.02,118,OHalloranWx,2013-01-18 14:15:00,
2013-01-18 09:21:00,35.0,22.1,29.57,ESE,109,7.3,8.8,58,0.01,,,0.02,124.2,OHalloranWx,2013-01-18 14:21:00,
2013-01-18 09:26:00,35.2,20.0,29.57,ESE,121,10.7,13.9,53,0.01,,,0.02,129.4,OHalloranWx,2013-01-18 14:26:00,
2013-01-18 09:32:00,35.3,21.9,29.57,ESE,116,5.8,8.5,57,0.01,,,0.02,134.6,OHalloranWx,2013-01-18 14:32:00,
2013-01-18 09:37:00,35.4,22.3,29.57,SE,142,6.2,7.8,58,0.03,,,0.04,137.4,OHalloranWx,2013-01-18 14:37:00,
2013-01-18 09:42:00,35.5,20.6,29.57,SE,129,6.1,7.8,54,0.03,,,0.04,141.8,OHalloranWx,2013-01-18 14:42:00,
2013-01-18 09:48:00,35.9,21.4,29.57,ESE,116,5.0,7.1,55,0.03,,,0.04,143.8,OHalloranWx,2013-01-18 14:48:00,
2013-01-18 09:53:00,36.0,20.1,29.57,SE,133,8.7,9.9,52,0.03,,,0.04,148.5,OHalloranWx,2013-01-18 14:53:00,
2013-01-18 09:59:00,36.0,21.4,29.57,ESE,116,7.8,9.2,54,0.03,,,0.04,153.6,OHalloranWx,2013-01-18 14:59:00,
2013-01-18 10:04:00,36.2,21.0,29.63,SE,135,8.8,11.4,53,0.03,,,0.04,157.8,OHalloranWx,2013-01-18 15:04:00,
2013-01-18 10:10:00,36.6,21.0,29.63,SE,132,4.3,5.6,52,0.02,,,0.04,162.9,OHalloranWx,2013-01-18 15:10:00,
2013-01-18 10:15:00,37.5,21.6,29.63,East,94,2.3,3.1,52,0.04,,,0.06,168.7,OHalloranWx,2013-01-18 15:15:00,
2013-01-18 10:21:00,38.0,24.3,29.63,East,101,3.3,4.9,57,0.04,,,0.06,175.7,OHalloranWx,2013-01-18 15:21:00,
2013-01-18 10:26:00,37.2,21.6,29.63,SE,130,7.2,8.1,52,0.04,,,0.06,184,OHalloranWx,2013-01-18 15:26:00,
2013-01-18 10:31:00,36.9,19.7,29.63,ESE,118,6.8,8.8,49,0.04,,,0.06,188.1,OHalloranWx,2013-01-18 15:31:00,
2013-01-18 10:37:00,37.0,20.5,29.63,SE,134,6.9,7.8,50,0.02,,,0.06,210.8,OHalloranWx,2013-01-18 15:37:00,
2013-01-18 10:42:00,37.1,19.7,29.63,SE,125,8.4,9.9,48,0.02,,,0.06,213.3,OHalloranWx,2013-01-18 15:42:00,
2013-01-18 10:48:00,37.5,19.6,29.63,SE,124,5.4,6.0,47,0.02,,,0.06,220.7,OHalloranWx,2013-01-18 15:48:00,
2013-01-18 10:53:00,37.7,20.0,29.63,SE,145,5.4,6.0,48,0.02,,,0.06,228.7,OHalloranWx,2013-01-18 15:53:00,
2013-01-18 10:59:00,38.1,20.5,29.63,SE,129,5.2,7.8,48,0.04,,,0.08,234.4,OHalloranWx,2013-01-18 15:59:00,
2013-01-18 11:04:00,38.0,20.3,29.66,SE,135,5.4,6.0,48,0.06,,,0.10,248.4,OHalloranWx,2013-01-18 16:04:00,
2013-01-18 11:10:00,38.3,21.5,29.66,SSE,153,3.9,4.2,50,0.09,,,0.13,250.7,OHalloranWx,2013-01-18 16:10:00,
2013-01-18 11:15:00,38.6,22.3,29.66,ESE,121,3.5,4.2,51,0.08,,,0.14,271.7,OHalloranWx,2013-01-18 16:15:00,
2013-01-18 11:21:00,39.5,19.7,29.66,ESE,112,3.3,4.2,44,0.11,,,0.17,292,OHalloranWx,2013-01-18 16:21:00,
2013-01-18 11:26:00,39.3,21.3,29.66,SE,135,6.0,7.8,48,0.12,,,0.18,299,OHalloranWx,2013-01-18 16:26:00,
2013-01-18 11:32:00,39.0,19.4,29.66,SE,134,5.2,6.7,44,0.14,,,0.20,299.6,OHalloranWx,2013-01-18 16:32:00,
2013-01-18 11:38:00,39.0,17.5,29.66,SE,128,3.7,4.9,41,0.18,,,0.24,423.9,OHalloranWx,2013-01-18 16:38:00,
2013-01-18 11:43:00,39.2,19.4,29.66,SE,126,5.3,6.7,44,0.20,,,0.26,479,OHalloranWx,2013-01-18 16:43:00,
2013-01-18 11:49:00,39.0,20.0,29.66,SE,133,6.2,8.1,45,0.23,,,0.29,430.7,OHalloranWx,2013-01-18 16:49:00,
2013-01-18 11:55:00,38.6,17.7,29.66,SE,129,6.4,7.1,42,0.25,,,0.31,373.7,OHalloranWx,2013-01-18 16:55:00,
2013-01-18 12:00:00,39.3,18.4,29.66,SSE,158,3.5,4.2,42,0.26,,,0.34,395.5,OHalloranWx,2013-01-18 17:00:00,
2013-01-18 12:06:00,39.8,19.6,29.66,SE,127,4.8,6.7,43,0.25,,,0.36,454.2,OHalloranWx,2013-01-18 17:06:00,
2013-01-18 12:11:00,40.3,17.5,29.66,East,79,2.7,3.1,39,0.26,,,0.39,509.6,OHalloranWx,2013-01-18 17:11:00,
2013-01-18 12:16:00,40.9,19.8,29.66,South,181,4.9,6.3,42,0.27,,,0.41,493,OHalloranWx,2013-01-18 17:16:00,
2013-01-18 12:22:00,40.9,19.0,29.66,West,275,3.0,3.5,40,0.27,,,0.44,495,OHalloranWx,2013-01-18 17:22:00,
2013-01-18 12:28:00,41.3,19.2,29.66,South,181,3.3,3.8,40,0.27,,,0.46,497.8,OHalloranWx,2013-01-18 17:28:00,
2013-01-18 12:33:00,40.2,18.1,29.66,East,88,4.0,5.3,40,0.29,,,0.49,500.1,OHalloranWx,2013-01-18 17:33:00,
2013-01-18 12:39:00,40.8,18.7,29.66,SE,134,2.6,3.5,40,0.27,,,0.51,501,OHalloranWx,2013-01-18 17:39:00,
2013-01-18 12:44:00,41.8,18.1,29.66,ESE,121,5.9,7.1,38,0.27,,,0.53,502.3,OHalloranWx,2013-01-18 17:44:00,
2013-01-18 12:50:00,41.0,20.0,29.66,SE,141,3.3,3.8,42,0.27,,,0.56,502.8,OHalloranWx,2013-01-18 17:50:00,
2013-01-18 12:55:00,40.7,18.5,29.66,SE,143,6.7,7.8,40,0.27,,,0.58,501.3,OHalloranWx,2013-01-18 17:55:00,
2013-01-18 13:01:00,40.3,18.6,29.63,SE,142,4.8,5.6,41,0.26,,,0.60,500.5,OHalloranWx,2013-01-18 18:01:00,
2013-01-18 13:06:00,40.3,16.2,29.63,SE,133,3.9,5.3,36,0.26,,,0.62,499.7,OHalloranWx,2013-01-18 18:06:00,
2013-01-18 13:11:00,41.9,19.7,29.63,NNE,30,0.7,1.3,40,0.24,,,0.62,503.3,OHalloranWx,2013-01-18 18:11:00,
2013-01-18 13:17:00,41.0,18.6,29.63,SSE,167,3.5,4.2,39,0.21,,,0.62,501.7,OHalloranWx,2013-01-18 18:17:00,
2013-01-18 13:22:00,41.3,18.2,29.63,SSE,149,3.0,3.8,38,0.19,,,0.62,490.5,OHalloranWx,2013-01-18 18:22:00,
2013-01-18 13:28:00,41.8,16.3,29.63,SSW,196,1.8,3.1,35,0.21,,,0.67,485.7,OHalloranWx,2013-01-18 18:28:00,
2013-01-18 13:33:00,42.9,19.2,29.63,SSE,147,5.7,6.7,38,0.21,,,0.69,481.5,OHalloranWx,2013-01-18 18:33:00,
2013-01-18 13:39:00,41.6,17.9,29.63,South,170,2.3,3.1,37,0.21,,,0.72,475.7,OHalloranWx,2013-01-18 18:39:00,
2013-01-18 13:44:00,41.2,17.8,29.63,SSE,149,6.4,7.4,38,0.22,,,0.75,470.1,OHalloranWx,2013-01-18 18:44:00,
2013-01-18 13:50:00,41.2,18.5,29.63,SE,124,2.8,3.5,39,0.22,,,0.77,464.5,OHalloranWx,2013-01-18 18:50:00,
2013-01-18 13:55:00,41.8,19.7,29.63,SW,221,2.6,3.1,40,0.22,,,0.79,457.4,OHalloranWx,2013-01-18 18:55:00,
2013-01-18 14:01:00,43.1,18.3,29.63,ENE,71,4.3,5.6,36,0.19,,,0.79,450.5,OHalloranWx,2013-01-18 19:01:00,
2013-01-18 14:06:00,41.7,17.0,29.63,SE,133,4.4,6.0,36,0.19,,,0.80,442.9,OHalloranWx,2013-01-18 19:06:00,
2013-01-18 14:11:00,41.8,20.4,29.63,ESE,103,5.4,6.7,41,0.20,,,0.82,436.4,OHalloranWx,2013-01-18 19:11:00,
2013-01-18 14:17:00,42.0,18.4,29.63,NE,56,5.5,6.7,38,0.21,,,0.83,426.9,OHalloranWx,2013-01-18 19:17:00,
2013-01-18 14:22:00,41.9,19.2,29.63,East,85,4.8,5.3,39,0.22,,,0.84,419.7,OHalloranWx,2013-01-18 19:22:00,
2013-01-18 14:28:00,42.1,18.3,29.63,East,87,5.9,7.1,37,0.18,,,0.84,410,OHalloranWx,2013-01-18 19:28:00,
2013-01-18 14:34:00,41.9,17.6,29.63,East,100,5.4,7.4,36,0.17,,,0.86,399.5,OHalloranWx,2013-01-18 19:34:00,
2013-01-18 14:39:00,42.1,19.3,29.63,East,93,4.7,6.3,39,0.14,,,0.86,390.4,OHalloranWx,2013-01-18 19:39:00,
2013-01-18 14:45:00,42.1,21.8,29.63,SE,124,4.7,5.3,44,0.13,,,0.88,379.3,OHalloranWx,2013-01-18 19:45:00,
2013-01-18 14:50:00,41.9,17.4,29.63,SSE,166,5.8,8.5,36,0.12,,,0.88,369.6,OHalloranWx,2013-01-18 19:50:00,
2013-01-18 14:56:00,42.6,18.7,29.63,East,92,6.0,8.1,37,0.10,,,0.89,357.8,OHalloranWx,2013-01-18 19:56:00,
2013-01-18 15:01:00,42.1,17.9,29.66,ESE,102,6.9,9.2,37,0.11,,,0.90,347.4,OHalloranWx,2013-01-18 20:01:00,
2013-01-18 15:06:00,42.3,18.1,29.66,East,86,3.9,4.9,37,0.11,,,0.91,337.4,OHalloranWx,2013-01-18 20:06:00,
2013-01-18 15:12:00,42.2,18.9,29.66,SSE,166,6.1,7.4,38,0.09,,,0.91,325,OHalloranWx,2013-01-18 20:12:00,
2013-01-18 15:17:00,42.5,20.6,29.66,ESE,114,3.1,3.8,41,0.08,,,0.91,314.1,OHalloranWx,2013-01-18 20:17:00,
2013-01-18 15:22:00,42.4,18.4,29.66,SE,136,5.0,6.0,37,0.09,,,0.92,303.5,OHalloranWx,2013-01-18 20:22:00,
2013-01-18 15:28:00,42.4,18.8,29.66,ESE,115,5.5,6.3,38,0.08,,,0.92,289.5,OHalloranWx,2013-01-18 20:28:00,
2013-01-18 15:33:00,42.0,19.8,29.66,ESE,113,5.8,6.7,40,0.07,,,0.92,277.9,OHalloranWx,2013-01-18 20:33:00,
2013-01-18 15:39:00,42.3,19.1,29.66,East,94,5.5,7.1,38,0.06,,,0.92,263.5,OHalloranWx,2013-01-18 20:39:00,
2013-01-18 15:44:00,42.3,18.0,29.66,SE,144,4.2,4.9,36,0.05,,,0.92,251.9,OHalloranWx,2013-01-18 20:44:00,
2013-01-18 15:50:00,43.2,17.6,29.66,SSE,157,1.4,2.1,35,0.04,,,0.92,237.9,OHalloranWx,2013-01-18 20:50:00,
2013-01-18 15:55:00,44.5,18.0,29.66,East,101,0.6,1.3,34,0.03,,,0.92,225.5,OHalloranWx,2013-01-18 20:55:00,
2013-01-18 16:00:00,44.6,19.6,29.66,East,90,2.6,3.1,36,0.02,,,0.92,213.9,OHalloranWx,2013-01-18 21:00:00,
2013-01-18 16:06:00,43.2,19.9,29.66,ENE,59,4.1,5.6,39,0.01,,,0.92,198.6,OHalloranWx,2013-01-18 21:06:00,
2013-01-18 16:12:00,42.7,19.7,29.66,SE,137,4.0,4.6,39,0.01,,,0.92,184,OHalloranWx,2013-01-18 21:12:00,
2013-01-18 16:17:00,42.8,21.3,29.66,ENE,71,3.2,3.5,41,0.01,,,0.92,171.3,OHalloranWx,2013-01-18 21:17:00,
2013-01-18 16:23:00,43.2,19.0,29.66,East,79,1.9,2.1,37,0.00,,,0.92,156.4,OHalloranWx,2013-01-18 21:23:00,
2013-01-18 16:28:00,44.1,18.7,29.66,SE,129,2.9,3.1,35,0.00,,,0.92,144.4,OHalloranWx,2013-01-18 21:28:00,
2013-01-18 16:34:00,42.2,18.5,29.66,ENE,67,3.0,4.2,37,0.00,,,0.92,129.3,OHalloranWx,2013-01-18 21:34:00,
2013-01-18 16:39:00,42.6,20.5,29.66,East,85,2.9,3.5,40,0.00,,,0.92,116.8,OHalloranWx,2013-01-18 21:39:00,
2013-01-18 16:45:00,41.1,21.4,29.66,East,82,2.7,3.1,44,0.00,,,0.92,43.05,OHalloranWx,2013-01-18 21:45:00,
2013-01-18 16:50:00,40.5,18.6,29.66,East,93,3.2,3.8,40,0.00,,,0.92,28.37,OHalloranWx,2013-01-18 21:50:00,
2013-01-18 16:55:00,40.1,20.1,29.66,NE,49,3.9,6.3,44,0.00,,,0.92,16.78,OHalloranWx,2013-01-18 21:55:00,
2013-01-18 17:01:00,39.6,23.5,29.66,ENE,68,5.3,6.0,52,0.00,,,0.92,10.79,OHalloranWx,2013-01-18 22:01:00,
2013-01-18 17:06:00,39.5,21.6,29.66,ENE,64,2.9,3.5,48,0.00,,,0.92,9.39,OHalloranWx,2013-01-18 22:06:00,
2013-01-18 17:12:00,39.6,21.3,29.66,ENE,69,4.5,5.6,47,0.00,,,0.92,7.59,OHalloranWx,2013-01-18 22:12:00,
2013-01-18 17:17:00,39.2,22.5,29.66,ENE,61,2.7,3.1,50,0.00,,,0.92,6.393,OHalloranWx,2013-01-18 22:17:00,
2013-01-18 17:23:00,39.2,21.7,29.66,ENE,66,3.0,3.5,49,0.00,,,0.92,4.296,OHalloranWx,2013-01-18 22:23:00,
2013-01-18 17:28:00,38.0,21.6,29.66,ENE,68,2.4,3.1,51,0.00,,,0.92,2.798,OHalloranWx,2013-01-18 22:28:00,
2013-01-18 17:34:00,37.3,24.9,29.66,ENE,68,3.0,3.5,60,0.00,,,0.92,0.999,OHalloranWx,2013-01-18 22:34:00,
2013-01-18 17:39:00,36.8,24.9,29.66,East,79,2.5,2.8,61,0.00,,,0.92,0.2,OHalloranWx,2013-01-18 22:39:00,
2013-01-18 17:44:00,35.9,25.7,29.66,ENE,71,2.5,2.8,66,0.00,,,0.92,0,OHalloranWx,2013-01-18 22:44:00,
2013-01-18 17:50:00,36.0,25.8,29.66,WNW,299,1.8,2.1,66,0.00,,,0.92,0,OHalloranWx,2013-01-18 22:50:00,
2013-01-18 17:55:00,34.5,27.2,29.66,SE,134,1.3,2.8,74,0.00,,,0.92,0,OHalloranWx,2013-01-18 22:55:00,
2013-01-18 18:01:00,33.3,28.0,29.66,SE,142,1.4,1.7,80,0.00,,,0.92,0,OHalloranWx,2013-01-18 23:01:00,
2013-01-18 18:06:00,33.4,27.9,29.66,ESE,115,1.7,2.8,79,0.00,,,0.92,0,OHalloranWx,2013-01-18 23:06:00,
2013-01-18 18:12:00,33.2,26.1,29.66,NNE,19,0.7,1.3,74,0.00,,,0.92,0,OHalloranWx,2013-01-18 23:12:00,
2013-01-18 18:17:00,33.3,27.8,29.66,East,86,1.8,2.1,80,0.00,,,0.92,0,OHalloranWx,2013-01-18 23:17:00,
2013-01-18 18:23:00,31.7,26.7,29.66,NNE,16,1.4,2.1,81,0.00,,,0.92,0,OHalloranWx,2013-01-18 23:23:00,
2013-01-18 18:29:00,31.7,26.7,29.66,North,354,1.4,1.7,81,0.00,,,0.92,0,OHalloranWx,2013-01-18 23:29:00,
2013-01-18 18:34:00,31.9,24.3,29.66,North,10,1.7,2.1,73,0.00,,,0.92,0,OHalloranWx,2013-01-18 23:34:00,
2013-01-18 18:40:00,31.3,27.1,29.66,East,99,3.8,4.6,84,0.00,,,0.92,0,OHalloranWx,2013-01-18 23:40:00,
2013-01-18 18:45:00,31.1,27.7,29.66,East,82,3.8,4.2,87,0.00,,,0.92,0,OHalloranWx,2013-01-18 23:45:00,
2013-01-18 18:51:00,31.4,25.0,29.66,North,359,0.4,1.3,76,0.00,,,0.92,0,OHalloranWx,2013-01-18 23:51:00,
2013-01-18 18:56:00,31.2,27.1,29.66,East,85,0.6,1.7,84,0.00,,,0.92,0,OHalloranWx,2013-01-18 23:56:00,
2013-01-18 19:02:00,30.1,27.7,29.69,SSE,147,0.0,0.0,90,0.00,,,0.92,0,OHalloranWx,2013-01-19 00:02:00,
2013-01-18 19:07:00,29.5,27.9,29.69,SE,145,0.6,1.3,93,0.00,,,0.92,0,OHalloranWx,2013-01-19 00:07:00,
2013-01-18 19:13:00,29.4,27.4,29.69,NW,307,0.0,0.0,92,0.00,,,0.92,0,OHalloranWx,2013-01-19 00:13:00,
2013-01-18 19:18:00,29.8,27.0,29.69,NNE,13,1.7,3.1,89,0.00,,,0.92,0,OHalloranWx,2013-01-19 00:18:00,
2013-01-18 19:23:00,32.7,23.9,29.69,NE,46,3.8,4.6,69,0.00,,,0.92,0,OHalloranWx,2013-01-19 00:23:00,
2013-01-18 19:29:00,32.2,26.3,29.69,East,87,3.4,3.8,78,0.00,,,0.92,0,OHalloranWx,2013-01-19 00:29:00,
2013-01-18 19:35:00,31.5,25.4,29.69,ENE,66,3.1,3.8,77,0.00,,,0.92,0,OHalloranWx,2013-01-19 00:35:00,
2013-01-18 19:40:00,31.9,26.2,29.69,East,92,3.4,3.8,79,0.00,,,0.92,0,OHalloranWx,2013-01-19 00:40:00,
2013-01-18 19:46:00,31.3,26.0,29.69,ENE,73,3.1,3.8,80,0.00,,,0.92,0,OHalloranWx,2013-01-19 00:46:00,
2013-01-18 19:51:00,33.6,24.1,29.69,NE,50,2.1,2.8,67,0.00,,,0.92,0,OHalloranWx,2013-01-19 00:51:00,
2013-01-18 19:57:00,33.6,25.3,29.69,East,85,2.7,3.1,71,0.00,,,0.92,0,OHalloranWx,2013-01-19 00:57:00,
2013-01-18 20:03:00,31.5,26.0,29.69,East,93,2.4,2.8,79,0.00,,,0.92,0,OHalloranWx,2013-01-19 01:03:00,
2013-01-18 20:08:00,31.8,25.0,29.69,East,82,2.7,3.1,75,0.00,,,0.92,0,OHalloranWx,2013-01-19 01:08:00,
2013-01-18 20:14:00,31.7,26.5,29.69,ENE,77,2.3,2.4,80,0.00,,,0.92,0,OHalloranWx,2013-01-19 01:14:00,
2013-01-18 20:19:00,30.6,25.9,29.69,NE,42,2.1,2.8,82,0.00,,,0.92,0,OHalloranWx,2013-01-19 01:19:00,
2013-01-18 20:25:00,30.9,27.4,29.69,North,7,1.0,1.7,86,0.00,,,0.92,0,OHalloranWx,2013-01-19 01:25:00,
2013-01-18 20:30:00,30.5,26.0,29.69,East,85,1.8,2.1,82,0.00,,,0.92,0,OHalloranWx,2013-01-19 01:30:00,
2013-01-18 20:35:00,30.9,26.9,29.69,ENE,78,3.3,3.8,84,0.00,,,0.92,0,OHalloranWx,2013-01-19 01:35:00,
2013-01-18 20:41:00,31.4,26.1,29.69,ENE,62,3.6,4.2,80,0.00,,,0.92,0,OHalloranWx,2013-01-19 01:41:00,
2013-01-18 20:47:00,32.3,25.1,29.69,NE,50,3.1,3.8,74,0.00,,,0.92,0,OHalloranWx,2013-01-19 01:47:00,
2013-01-18 20:52:00,33.2,25.2,29.69,ENE,59,2.6,3.1,71,0.00,,,0.92,0,OHalloranWx,2013-01-19 01:52:00,
2013-01-18 20:57:00,32.7,26.4,29.69,East,82,4.8,5.6,77,0.00,,,0.92,0,OHalloranWx,2013-01-19 01:57:00,
2013-01-18 21:03:00,31.8,25.3,29.69,NE,49,3.5,4.2,76,0.00,,,0.92,0,OHalloranWx,2013-01-19 02:03:00,
2013-01-18 21:09:00,32.4,25.6,29.69,ENE,75,3.1,3.8,75,0.00,,,0.92,0,OHalloranWx,2013-01-19 02:09:00,
2013-01-18 21:14:00,32.2,25.6,29.69,NE,49,3.0,5.6,76,0.00,,,0.92,0,OHalloranWx,2013-01-19 02:14:00,
2013-01-18 21:19:00,32.7,25.7,29.69,NE,35,3.2,3.8,75,0.00,,,0.92,0,OHalloranWx,2013-01-19 02:19:00,
2013-01-18 21:24:00,32.1,26.3,29.69,ENE,74,3.4,3.8,78,0.00,,,0.92,0,OHalloranWx,2013-01-19 02:24:00,
2013-01-18 21:30:00,31.9,25.8,29.69,East,84,2.6,3.5,77,0.00,,,0.92,0,OHalloranWx,2013-01-19 02:30:00,
2013-01-18 21:36:00,31.9,26.4,29.69,ENE,62,3.7,4.2,79,0.00,,,0.92,0,OHalloranWx,2013-01-19 02:36:00,
2013-01-18 21:41:00,32.1,26.9,29.69,ENE,78,4.5,5.3,81,0.00,,,0.92,0,OHalloranWx,2013-01-19 02:41:00,
2013-01-18 21:47:00,32.3,26.4,29.69,NE,53,4.1,5.6,78,0.00,,,0.92,0,OHalloranWx,2013-01-19 02:47:00,
2013-01-18 21:53:00,31.5,27.5,29.69,ENE,69,3.6,4.9,85,0.00,,,0.92,0,OHalloranWx,2013-01-19 02:53:00,
2013-01-18 21:58:00,32.0,26.8,29.69,NE,50,2.8,3.5,80,0.00,,,0.92,0,OHalloranWx,2013-01-19 02:58:00,
2013-01-18 22:03:00,31.9,27.1,29.69,ENE,63,2.8,3.1,82,0.00,,,0.92,0,OHalloranWx,2013-01-19 03:03:00,
2013-01-18 22:09:00,31.9,28.1,29.69,ENE,60,3.9,4.9,85,0.00,,,0.92,0,OHalloranWx,2013-01-19 03:09:00,
2013-01-18 22:14:00,31.3,28.0,29.69,NE,34,3.4,4.2,87,0.00,,,0.92,0,OHalloranWx,2013-01-19 03:14:00,
2013-01-18 22:19:00,31.2,29.4,29.69,East,91,3.8,4.2,93,0.00,,,0.92,0,OHalloranWx,2013-01-19 03:19:00,
2013-01-18 22:25:00,30.6,29.0,29.69,ENE,77,3.0,3.8,93,0.00,,,0.92,0,OHalloranWx,2013-01-19 03:25:00,
2013-01-18 22:30:00,31.7,29.2,29.69,NNE,28,3.9,4.9,90,0.00,,,0.92,0,OHalloranWx,2013-01-19 03:30:00,
2013-01-18 22:36:00,31.5,30.8,29.69,ENE,60,4.4,5.3,97,0.00,,,0.92,0,OHalloranWx,2013-01-19 03:36:00,
2013-01-18 22:42:00,31.8,31.3,29.69,ENE,63,4.6,4.9,98,0.00,,,0.92,0,OHalloranWx,2013-01-19 03:42:00,
2013-01-18 22:47:00,31.8,31.8,29.69,ENE,77,3.9,4.6,100,0.00,,,0.92,0,OHalloranWx,2013-01-19 03:47:00,
2013-01-18 22:52:00,31.4,31.4,29.69,ENE,59,3.0,3.5,100,0.00,,,0.92,0,OHalloranWx,2013-01-19 03:52:00,
2013-01-18 22:58:00,31.2,33.7,29.69,NE,55,2.3,2.8,111,0.00,,,0.92,0,OHalloranWx,2013-01-19 03:58:00,
2013-01-18 23:04:00,32.0,35.2,29.66,NE,45,2.7,3.5,113,0.00,,,0.92,0,OHalloranWx,2013-01-19 04:04:00,
2013-01-18 23:09:00,31.0,31.0,29.66,NE,55,3.6,3.8,100,0.00,,,0.92,0,OHalloranWx,2013-01-19 04:09:00,
2013-01-18 23:15:00,31.2,30.7,29.66,East,90,4.0,5.6,98,0.00,,,0.92,0,OHalloranWx,2013-01-19 04:15:00,
2013-01-18 23:20:00,30.6,30.6,29.66,NE,42,2.8,3.8,99,0.00,,,0.92,0,OHalloranWx,2013-01-19 04:20:00,
2013-01-18 23:26:00,31.0,30.4,29.66,NE,41,1.5,2.1,97,0.00,,,0.92,0,OHalloranWx,2013-01-19 04:26:00,
2013-01-18 23:31:00,30.8,30.8,29.66,ENE,75,2.4,2.8,100,0.00,,,0.92,0,OHalloranWx,2013-01-19 04:31:00,
2013-01-18 23:38:00,31.1,32.9,29.66,ENE,69,2.7,3.1,107,0.00,,,0.92,0,OHalloranWx,2013-01-19 04:38:00,
2013-01-18 23:43:00,31.1,34.0,29.66,NNW,328,1.4,1.7,112,0.00,,,0.92,0,OHalloranWx,2013-01-19 04:43:00,
2013-01-18 23:49:00,30.3,33.8,29.66,ENE,73,1.0,1.3,115,0.00,,,0.92,0,OHalloranWx,2013-01-19 04:49:00,
2013-01-18 23:55:00,30.3,34.6,29.66,NNE,14,1.2,1.3,118,0.00,,,0.92,0,OHalloranWx,2013-01-19 04:55:00,